This demonstration page uses our WeatherBlox Daily Observations layout. Learn more.

Left ArrowRight Arrow

38.88101, -77.10428

Hourly Observations for June 5, 2021

Temp ( °F °C ) Dew Point ( °F °C ) Humidity (%) Winds ( mph kmh ) Pressure ( in mb ) Visibility ( mi km ) Precip ( " mm )
12:52 am 00:52 Mostly Clear 72 22.2 69 20.6 91 91 SSW 7 11 29.99 1016 10 16 N/A
1:52 am 01:52 Mostly Clear 71 21.7 67 19.4 87 87 S 5 7 29.99 1016 10 16 N/A
2:52 am 02:52 Mostly Clear 71 21.7 67 19.4 87 87 S 7 11 29.98 1015 10 16 N/A
3:52 am 03:52 Mostly Clear 70 21.1 65 18.3 84 84 SSW 5 7 29.99 1016 10 16 N/A
4:52 am 04:52 Mostly Clear 69 20.6 64 17.8 84 84 SSW 3 6 29.99 1016 10 16 N/A
5:52 am 05:52 Mostly Sunny 69 20.6 64 17.8 84 84 N N/A 30.01 1016 10 16 N/A
6:52 am 06:52 Mostly Sunny 70 21.1 63 17.2 79 79 SSW 5 7 30.03 1017 10 16 N/A
7:52 am 07:52 Mostly Sunny 73 22.8 64 17.8 74 74 SSE 5 7 30.04 1017 10 16 N/A
8:52 am 08:52 Mostly Sunny 76 24.4 66 18.9 72 72 S 8 13 30.04 1017 10 16 N/A
9:52 am 09:52 Mostly Sunny 84 28.9 62 16.7 48 48 NNE 6 9 30.04 1017 10 16 N/A
10:52 am 10:52 Mostly Sunny 86 30 62 16.7 45 45 NNW 12 19 30.04 1017 10 16 N/A
11:52 am 11:52 Sunny 88 31.1 63 17.2 43 43 NW 10 17 30.04 1017 10 16 N/A
12:52 pm 12:52 Sunny 90 32.2 61 16.1 38 38 VRB 3 6 30.03 1017 10 16 N/A
1:52 pm 13:52 Partly Cloudy 91 32.8 61 16.1 37 37 ENE 6 9 30.01 1016 10 16 N/A
2:52 pm 14:52 Mostly Sunny 86 30 64 17.8 48 48 S 8 13 30.00 1016 10 16 N/A
3:52 pm 15:52 Mostly Cloudy 90 32.2 65 18.3 44 44 SSW 10 17 29.99 1016 10 16 N/A
4:52 pm 16:52 Mostly Sunny 90 32.2 62 16.7 39 39 SSW 13 20 29.99 1016 10 16 N/A
5:52 pm 17:52 Mostly Sunny 89 31.7 62 16.7 41 41 SW 15 24 29.98 1015 10 16 N/A
6:52 pm 18:52 Mostly Sunny 88 31.1 62 16.7 42 42 SSW 14 22 29.98 1015 10 16 N/A
7:52 pm 19:52 Mostly Sunny 85 29.4 62 16.7 46 46 S 10 17 29.99 1016 10 16 N/A
8:52 pm 20:52 Partly Cloudy 81 27.2 67 19.4 62 62 S 6 9 30.01 1016 10 16 N/A
9:52 pm 21:52 Partly Cloudy 79 26.1 68 20 69 69 S 9 15 30.03 1017 10 16 N/A
10:52 pm 22:52 Mostly Cloudy 77 25 69 20.6 77 77 S 8 13 30.04 1017 10 16 N/A
11:52 pm 23:52 Mostly Cloudy 76 24.4 66 18.9 72 72 S 8 13 30.04 1017 10 16 N/A

Powered by AerisWeather